ASTROCAST-0105 (47517 NORAD) Tracking and Keplerian Element Data

This shows tracking and keplerian element data for the satellite.

Feedback or suggestion? Click here.




ElementValue
Catalog47517
NameASTROCAST-0105
Epoch Orbit1168
Epoch Day99.92546151
Epoch Year2021
RAAN162.2034
Inclination97.4924
Eccentricity0.0007764
Argument of Perigee359.8528
Mean Anonmoly0.2699
Mean Motion15.11780511
Decay Rate5.08E-06
L11 47517U 21006DH 21099.92546151 .00000508 00000-0 33500-4 0 9995
L22 47517 97.4924 162.2034 0007764 359.8528 0.2699 15.11780511 11685

Live tracking and technical data element details for ASTROCAST-0105 (NORAD 47517). ASTROCAST-0105 can be tracked NOW for your location showing map with azimuth and elevation plus other details from your city location.

Track the satellite on the map from your city or location and see movement details for azimuth, elevation, latitude, longitude, range, height, and movement on the map or in text.







IsCatalogInMostPopularTable: catalog: 47517, numindb: 13
Update: records affected: 1



GetName: 47517 ASTROCAST-0105

Hit Count: updated at: Sat, 10 Apr 2021 19:00:58 GMT